Weather History for Scottsdale, AZ

Change the Weather History Date:

Thursday, January 10, 2013

  Actual Average Record
Temperature  
Mean Temperature 51 °F -  
Max Temperature 60 °F 63 °F 77 °F (2004)
Min Temperature 42 °F 42 °F 37 °F (1997)
Degree Days  
Heating Degree Days 14    
Growing Degree Days 1 (Base 50)    
Moisture  
Dew Point 28 °F    
Average Humidity 41    
Maximum Humidity 59    
Minimum Humidity 27    
Precipitation  
Precipitation 0.00 in - - ()
Sea Level Pressure  
Sea Level Pressure 29.86 in    
Wind  
Wind Speed 2 mph (WSW)    
Max Wind Speed 13 mph    
Max Gust Speed 22 mph    
Visibility 10 miles    
Events Rain    
Averages and records for this station are not official NWS values.
T = Trace of Precipitation, MM = Missing Value Source: NWS Daily Summary

Daily Weather History Graph

Daily Weather History Graph

Search for Another Location

Airport:

Trip Planner

Search our weather history database for the weather conditions in past years. The results will help you decide how hot, cold, wet, or windy it might be!

Date:

Astronomy

Jan. 10, 2013 Rise Set
Actual Time 7:32 AM MST 5:38 PM MST
Civil Twilight 7:05 AM MST 6:05 PM MST
Nautical Twilight 6:34 AM MST 6:36 PM MST
Astronomical Twilight 6:04 AM MST 7:06 PM MST
Moon 6:16 AM MST (1/10) 4:49 PM MST (1/10)
Length of Visible Light 10h 59m
Length of Day
10h 05m
Waning Crescent, 2% of the Moon is Illuminated
Jan 10
Waning Crescent
Jan 11
New
Jan 18
First Quarter
Jan 26
Full
Feb 3
Last Quarter

Hourly Weather History & Observations

Time (MST) Temp. Windchill Dew Point Humidity Pressure Visibility Wind Dir Wind Speed Gust Speed Precip Events Conditions
12:53 AM 46.9 °F - 30.0 °F 52% 29.96 in 10.0 mi Calm Calm - N/A   Clear
1:53 AM 46.0 °F - 28.0 °F 50% 29.95 in 10.0 mi Calm Calm - N/A   Clear
2:53 AM 44.1 °F - 28.9 °F 55% 29.95 in 10.0 mi Calm Calm - N/A   Clear
3:53 AM 44.1 °F 42.5 °F 28.9 °F 55% 29.94 in 10.0 mi NE 3.5 mph - N/A   Clear
4:53 AM 48.9 °F - 24.1 °F 38% 29.90 in 10.0 mi Calm Calm - N/A   Clear
5:53 AM 45.0 °F - 26.1 °F 48% 29.91 in 10.0 mi Calm Calm - N/A   Clear
6:53 AM 42.1 °F - 27.0 °F 55% 29.90 in 10.0 mi Calm Calm - N/A   Clear
7:53 AM 44.1 °F 41.5 °F 26.1 °F 49% 29.93 in 10.0 mi SW 4.6 mph - N/A   Clear
8:53 AM 48.0 °F - 25.0 °F 41% 29.94 in 10.0 mi Calm Calm - N/A   Clear
9:53 AM 48.9 °F - 26.1 °F 41% 29.93 in 10.0 mi Calm Calm - N/A   Clear
10:53 AM 55.9 °F - 24.1 °F 29% 29.90 in 10.0 mi WSW 4.6 mph - N/A   Clear
11:53 AM 57.0 °F - 26.1 °F 30% 29.86 in 10.0 mi South 4.6 mph - N/A   Clear
12:53 PM 59.0 °F - 25.0 °F 27% 29.82 in 10.0 mi SSE 4.6 mph - N/A   Clear
1:53 PM 60.1 °F - 27.0 °F 28% 29.80 in 8.0 mi Calm Calm - N/A   Clear
2:53 PM 59.0 °F - 28.9 °F 32% 29.79 in 10.0 mi Calm Calm - N/A   Clear
3:53 PM 57.0 °F - 30.0 °F 36% 29.78 in 10.0 mi WNW 3.5 mph - N/A   Mostly Cloudy
4:53 PM 57.0 °F - 28.0 °F 33% 29.78 in 10.0 mi NW 3.5 mph - N/A   Overcast
5:53 PM 57.0 °F - 27.0 °F 32% 29.78 in 10.0 mi Calm Calm - N/A   Scattered Clouds
6:53 PM 55.0 °F - 27.0 °F 34% 29.78 in 10.0 mi West 5.8 mph - N/A   Clear
7:53 PM 53.1 °F - 27.0 °F 37% 29.78 in 10.0 mi Calm Calm - N/A   Clear
8:53 PM 52.0 °F - 37.9 °F 59% 29.79 in 10.0 mi SW 10.4 mph - 0.00 in Rain Light Rain
9:53 PM 53.1 °F - 37.0 °F 55% 29.81 in 10.0 mi WSW 12.7 mph 19.6 mph 0.00 in   Overcast
10:53 PM 51.1 °F - 27.0 °F 39% 29.83 in 10.0 mi WSW 6.9 mph - N/A   Overcast
11:53 PM 48.9 °F - 24.1 °F 38% 29.86 in 10.0 mi WSW 9.2 mph 21.9 mph N/A   Overcast